| time (UTC) | temp F | wind direction | speed MPH | gust MPH | rain 1hr in | rain 24hr in | rain mn in | humidity % | barometer mb |
| 20260502170337 | 61 | 347 | 0.0 | 0.0 | 0.00 | 0.00 | 0.00 | 33 | 1017.0 |
| 20260502150337 | 59 | 1 | 0.0 | 0.0 | 0.00 | 0.00 | 0.00 | 33 | 1017.0 |
| 20260502090504 | 58 | 0 | 0.0 | 0.0 | 0.00 | 0.35 | 0.00 | 33 | 1017.0 |
| 20260502090344 | 59 | 0 | 0.0 | 0.0 | 0.00 | 0.00 | 0.00 | 33 | 1017.0 |
| 20260502034327 | 59 | 205 | 0.0 | 0.0 | 0.00 | 0.00 | 0.00 | 33 | 1017.0 |
| 20260502034032 | 58 | 205 | 1.0 | 3.0 | 0.00 | 0.35 | 0.00 | 33 | 1017.0 |
| 20260502033845 | 59 | 205 | 1.0 | 0.0 | 0.00 | 0.00 | 0.00 | 33 | 1017.0 |
| 20260502033526 | 58 | 205 | 0.0 | 1.0 | 0.00 | 0.35 | 0.00 | 33 | 1017.0 |
| 20260502033341 | 59 | 205 | 0.0 | 0.0 | 0.00 | 0.00 | 0.00 | 33 | 1017.0 |
| 20260502033028 | 59 | 205 | 0.0 | 1.0 | 0.00 | 0.35 | 0.00 | 33 | 1017.0 |
| 20260502032838 | 59 | 205 | 2.0 | 0.0 | 0.00 | 0.00 | 0.00 | 33 | 1017.0 |
| 20260502032514 | 59 | 205 | 0.0 | 2.0 | 0.00 | 0.35 | 0.00 | 33 | 1017.0 |
| 20260502032333 | 59 | 205 | 1.0 | 0.0 | 0.00 | 0.00 | 0.00 | 33 | 1017.0 |
| 20260502032040 | 59 | 205 | 0.0 | 2.0 | 0.00 | 0.35 | 0.00 | 33 | 1017.0 |
| 20260502031849 | 59 | 205 | 0.0 | 0.0 | 0.00 | 0.00 | 0.00 | 33 | 1017.0 |
| 20260502031513 | 59 | 205 | 0.0 | 1.0 | 0.00 | 0.35 | 0.00 | 33 | 1017.0 |
| 20260502031342 | 59 | 205 | 0.0 | 0.0 | 0.00 | 0.00 | 0.00 | 33 | 1017.0 |
| 20260502031006 | 59 | 205 | 0.0 | 1.0 | 0.00 | 0.35 | 0.00 | 33 | 1017.0 |
| 20260502030858 | 60 | 205 | 1.0 | 0.0 | 0.00 | 0.00 | 0.00 | 33 | 1017.0 |
| 20260502030533 | 59 | 205 | 0.0 | 0.0 | 0.00 | 0.35 | 0.00 | 33 | 1017.0 |
| 20260502030330 | 60 | 205 | 2.0 | 0.0 | 0.00 | 0.00 | 0.00 | 33 | 1017.0 |
| 20260502030027 | 59 | 205 | 0.0 | 1.0 | 0.00 | 0.35 | 0.00 | 33 | 1017.0 |
| 20260502025848 | 60 | 205 | 0.0 | 0.0 | 0.00 | 0.00 | 0.00 | 33 | 1017.0 |
| 20260502025554 | 59 | 205 | 0.0 | 2.0 | 0.00 | 0.35 | 0.00 | 33 | 1017.0 |
| 20260502025342 | 60 | 205 | 2.0 | 0.0 | 0.00 | 0.00 | 0.00 | 33 | 1017.0 |
| 20260502025047 | 59 | 205 | 1.0 | 3.0 | 0.00 | 0.35 | 0.00 | 33 | 1017.0 |
| 20260502024835 | 60 | 205 | 4.0 | 0.0 | 0.00 | 0.00 | 0.00 | 33 | 1017.0 |
| 20260502024539 | 59 | 205 | 2.0 | 3.0 | 0.00 | 0.35 | 0.00 | 33 | 1017.0 |
| 20260502024330 | 60 | 202 | 1.0 | 0.0 | 0.00 | 0.00 | 0.00 | 33 | 1017.0 |
| 20260502024031 | 59 | 173 | 1.0 | 2.0 | 0.00 | 0.35 | 0.00 | 33 | 1017.0 |
| 20260502023845 | 60 | 172 | 0.0 | 0.0 | 0.00 | 0.00 | 0.00 | 33 | 1017.0 |
| 20260502023600 | 60 | 222 | 1.0 | 3.0 | 0.00 | 0.35 | 0.00 | 33 | 1017.0 |
| 20260502023507 | 60 | 222 | 1.0 | 3.0 | 0.00 | 0.35 | 0.00 | 33 | 1017.0 |
| 20260502023400 | 60 | 222 | 3.0 | 0.0 | 0.00 | 0.00 | 0.00 | 33 | 1017.0 |
| 20260502023033 | 60 | 222 | 1.0 | 5.0 | 0.00 | 0.35 | 0.00 | 33 | 1017.0 |
| 20260502022857 | 60 | 220 | 6.0 | 0.0 | 0.00 | 0.00 | 0.00 | 33 | 1017.0 |
| 20260502022505 | 60 | 208 | 3.0 | 6.0 | 0.00 | 0.35 | 0.00 | 33 | 1017.0 |
| 20260502022329 | 61 | 231 | 6.0 | 0.0 | 0.00 | 0.00 | 0.00 | 33 | 1017.0 |
| 20260502022056 | 60 | 211 | 5.0 | 6.0 | 0.00 | 0.35 | 0.00 | 33 | 1017.0 |
| 20260502021905 | 61 | 228 | 8.0 | 0.0 | 0.00 | 0.00 | 0.00 | 33 | 1017.0 |
| 20260502021525 | 61 | 222 | 1.0 | 3.0 | 0.00 | 0.35 | 0.00 | 33 | 1017.0 |
| 20260502021339 | 61 | 222 | 2.0 | 0.0 | 0.00 | 0.00 | 0.00 | 33 | 1017.0 |
| 20260502021017 | 61 | 222 | 3.0 | 6.0 | 0.00 | 0.35 | 0.00 | 33 | 1017.0 |
| 20260502020854 | 62 | 211 | 5.0 | 0.0 | 0.00 | 0.00 | 0.00 | 33 | 1017.0 |
| 20260502020550 | 62 | 235 | 2.0 | 6.0 | 0.00 | 0.35 | 0.00 | 33 | 1017.0 |
| 20260502020328 | 62 | 222 | 3.0 | 0.0 | 0.00 | 0.00 | 0.00 | 33 | 1017.0 |
| 20260502020041 | 62 | 232 | 4.0 | 6.0 | 0.00 | 0.35 | 0.00 | 33 | 1017.0 |
| 20260502015842 | 63 | 232 | 3.0 | 0.0 | 0.00 | 0.00 | 0.00 | 33 | 1017.0 |
| 20260502015512 | 62 | 197 | 2.0 | 6.0 | 0.00 | 0.35 | 0.00 | 33 | 1017.0 |
| 20260502015337 | 63 | 225 | 3.0 | 0.0 | 0.00 | 0.00 | 0.00 | 33 | 1017.0 |
| 20260502015102 | 63 | 235 | 3.0 | 6.0 | 0.00 | 0.35 | 0.00 | 33 | 1017.0 |
| 20260502015007 | 63 | 231 | 3.0 | 6.0 | 0.00 | 0.35 | 0.00 | 33 | 1017.0 |
| 20260502014832 | 63 | 237 | 2.0 | 0.0 | 0.00 | 0.00 | 0.00 | 33 | 1017.0 |
| 20260502014552 | 63 | 254 | 4.0 | 7.0 | 0.00 | 0.35 | 0.00 | 33 | 1017.0 |
| 20260502014325 | 64 | 225 | 6.0 | 0.0 | 0.00 | 0.00 | 0.00 | 33 | 1017.0 |
| 20260502014042 | 64 | 232 | 3.0 | 7.0 | 0.00 | 0.35 | 0.00 | 33 | 1017.0 |
| 20260502013840 | 64 | 144 | 4.0 | 0.0 | 0.00 | 0.00 | 0.00 | 33 | 1017.0 |
| 20260502013535 | 64 | 246 | 3.0 | 5.0 | 0.00 | 0.35 | 0.00 | 33 | 1017.0 |
| 20260502013336 | 65 | 202 | 6.0 | 0.0 | 0.00 | 0.00 | 0.00 | 33 | 1017.0 |
| 20260502013031 | 64 | 262 | 2.0 | 6.0 | 0.00 | 0.35 | 0.00 | 33 | 1017.0 |
| 20260502012830 | 65 | 205 | 5.0 | 0.0 | 0.00 | 0.00 | 0.00 | 33 | 1017.0 |
| 20260502012523 | 65 | 249 | 4.0 | 6.0 | 0.00 | 0.35 | 0.00 | 33 | 1017.0 |
| 20260502012326 | 65 | 218 | 4.0 | 0.0 | 0.00 | 0.00 | 0.00 | 33 | 1017.0 |
| 20260502012018 | 65 | 222 | 2.0 | 6.0 | 0.00 | 0.35 | 0.00 | 33 | 1017.0 |
| 20260502011825 | 66 | 218 | 3.0 | 0.0 | 0.00 | 0.00 | 0.00 | 33 | 1017.0 |
| 20260502011516 | 65 | 228 | 5.0 | 6.0 | 0.00 | 0.35 | 0.00 | 33 | 1017.0 |
| 20260502011340 | 66 | 232 | 2.0 | 0.0 | 0.00 | 0.00 | 0.00 | 33 | 1017.0 |
| 20260502011100 | 65 | 272 | 3.0 | 7.0 | 0.00 | 0.35 | 0.00 | 33 | 1017.0 |
| 20260502011005 | 65 | 223 | 3.0 | 7.0 | 0.00 | 0.35 | 0.00 | 33 | 1017.0 |
| 20260502010839 | 66 | 224 | 3.0 | 0.0 | 0.00 | 0.00 | 0.00 | 33 | 1017.0 |
| 20260502010556 | 65 | 239 | 3.0 | 7.0 | 0.00 | 0.35 | 0.00 | 33 | 1017.0 |
| 20260502010333 | 65 | 242 | 2.0 | 0.0 | 0.00 | 0.00 | 0.00 | 33 | 1017.0 |
| 20260502010025 | 65 | 216 | 5.0 | 6.0 | 0.00 | 0.35 | 0.00 | 33 | 1017.0 |
| 20260502005832 | 66 | 211 | 5.0 | 0.0 | 0.00 | 0.00 | 0.00 | 33 | 1017.0 |
| 20260502005517 | 66 | 228 | 5.0 | 6.0 | 0.00 | 0.35 | 0.00 | 33 | 1017.0 |
| 20260502005325 | 66 | 246 | 5.0 | 0.0 | 0.00 | 0.00 | 0.00 | 33 | 1017.0 |
| 20260502005010 | 66 | 237 | 5.0 | 6.0 | 0.00 | 0.35 | 0.00 | 33 | 1017.0 |
| 20260502004900 | 66 | 264 | 6.0 | 0.0 | 0.00 | 0.00 | 0.00 | 33 | 1017.0 |
| 20260502004539 | 66 | 221 | 4.0 | 6.0 | 0.00 | 0.35 | 0.00 | 33 | 1017.0 |
| 20260502004335 | 67 | 221 | 7.0 | 0.0 | 0.00 | 0.00 | 0.00 | 33 | 1017.0 |
| 20260502004032 | 67 | 220 | 4.0 | 6.0 | 0.00 | 0.35 | 0.00 | 33 | 1017.0 |
| 20260502003827 | 67 | 245 | 5.0 | 0.0 | 0.00 | 0.00 | 0.00 | 33 | 1017.0 |
| 20260502003521 | 67 | 293 | 3.0 | 7.0 | 0.00 | 0.35 | 0.00 | 33 | 1017.0 |
| 20260502003344 | 68 | 179 | 5.0 | 0.0 | 0.00 | 0.00 | 0.00 | 33 | 1017.0 |
| 20260502003019 | 67 | 272 | 5.0 | 7.0 | 0.00 | 0.35 | 0.00 | 33 | 1017.0 |
| 20260502002837 | 68 | 229 | 7.0 | 0.0 | 0.00 | 0.00 | 0.00 | 33 | 1017.0 |
| 20260502002544 | 67 | 237 | 5.0 | 7.0 | 0.00 | 0.35 | 0.00 | 33 | 1017.0 |
| 20260502002332 | 67 | 288 | 6.0 | 0.0 | 0.00 | 0.00 | 0.00 | 33 | 1017.0 |
| 20260502002036 | 67 | 222 | 4.0 | 6.0 | 0.00 | 0.35 | 0.00 | 33 | 1017.0 |
| 20260502001827 | 68 | 210 | 4.0 | 0.0 | 0.00 | 0.00 | 0.00 | 33 | 1017.0 |
| 20260502001530 | 68 | 293 | 2.0 | 6.0 | 0.00 | 0.35 | 0.00 | 33 | 1017.0 |
| 20260502001342 | 68 | 263 | 4.0 | 0.0 | 0.00 | 0.00 | 0.00 | 33 | 1017.0 |
| 20260502001021 | 68 | 249 | 3.0 | 6.0 | 0.00 | 0.35 | 0.00 | 33 | 1017.0 |
| 20260502000838 | 68 | 235 | 5.0 | 0.0 | 0.00 | 0.00 | 0.00 | 33 | 1017.0 |
| 20260502000515 | 68 | 253 | 3.0 | 6.0 | 0.00 | 0.35 | 0.00 | 33 | 1017.0 |
| 20260502000334 | 69 | 220 | 9.0 | 0.0 | 0.00 | 0.00 | 0.00 | 33 | 1017.0 |
| 20260502000009 | 69 | 218 | 4.0 | 6.0 | 0.00 | 0.35 | 0.00 | 33 | 1017.0 |
| 20260501235829 | 70 | 208 | 5.0 | 0.0 | 0.00 | 0.00 | 0.00 | 33 | 1017.0 |
| 20260501235556 | 69 | 199 | 3.0 | 6.0 | 0.00 | 0.35 | 0.00 | 33 | 1017.0 |
| 20260501235343 | 69 | 258 | 5.0 | 0.0 | 0.00 | 0.00 | 0.00 | 33 | 1017.0 |
| 20260501235056 | 69 | 245 | 3.0 | 7.0 | 0.00 | 0.35 | 0.00 | 33 | 1017.0 |
| 20260501234901 | 70 | 265 | 3.0 | 0.0 | 0.00 | 0.00 | 0.00 | 33 | 1017.0 |
| 20260501234528 | 69 | 289 | 6.0 | 7.0 | 0.00 | 0.35 | 0.00 | 33 | 1017.0 |
| 20260501234359 | 70 | 212 | 4.0 | 0.0 | 0.00 | 0.00 | 0.00 | 33 | 1017.0 |
| 20260501234054 | 69 | 232 | 5.0 | 7.0 | 0.00 | 0.35 | 0.00 | 33 | 1017.0 |
| 20260501233832 | 70 | 224 | 2.0 | 0.0 | 0.00 | 0.00 | 0.00 | 33 | 1017.0 |
| 20260501233547 | 69 | 207 | 2.0 | 6.0 | 0.00 | 0.35 | 0.00 | 33 | 1017.0 |
| 20260501233345 | 69 | 146 | 2.0 | 0.0 | 0.00 | 0.00 | 0.00 | 33 | 1017.0 |
| 20260501233039 | 69 | 261 | 3.0 | 6.0 | 0.00 | 0.35 | 0.00 | 33 | 1017.0 |
| 20260501232841 | 69 | 262 | 5.0 | 0.0 | 0.00 | 0.00 | 0.00 | 33 | 1017.0 |
| 20260501232533 | 69 | 242 | 6.0 | 6.0 | 0.00 | 0.35 | 0.00 | 33 | 1017.0 |
| 20260501232339 | 70 | 233 | 7.0 | 0.0 | 0.00 | 0.00 | 0.00 | 33 | 1017.0 |
| 20260501232025 | 70 | 241 | 2.0 | 8.0 | 0.00 | 0.35 | 0.00 | 33 | 1017.0 |
| 20260501231834 | 69 | 302 | 2.0 | 0.0 | 0.00 | 0.00 | 0.00 | 33 | 1017.0 |
| 20260501231533 | 69 | 259 | 5.0 | 8.0 | 0.00 | 0.35 | 0.00 | 33 | 1017.0 |
| 20260501231335 | 70 | 232 | 7.0 | 0.0 | 0.00 | 0.00 | 0.00 | 33 | 1017.0 |
| 20260501231012 | 70 | 268 | 4.0 | 10.0 | 0.00 | 0.35 | 0.00 | 33 | 1017.0 |
| 20260501230829 | 70 | 274 | 6.0 | 0.0 | 0.00 | 0.00 | 0.00 | 33 | 1017.0 |
| 20260501230507 | 69 | 215 | 3.0 | 10.0 | 0.00 | 0.35 | 0.00 | 33 | 1017.0 |
| 20260501230345 | 70 | 224 | 4.0 | 0.0 | 0.00 | 0.00 | 0.00 | 33 | 1017.0 |
| 20260501230050 | 69 | 225 | 6.0 | 10.0 | 0.00 | 0.35 | 0.00 | 33 | 1017.0 |
| 20260501225834 | 70 | 283 | 5.0 | 0.0 | 0.00 | 0.00 | 0.00 | 33 | 1017.0 |
| 20260501225541 | 70 | 225 | 4.0 | 7.0 | 0.00 | 0.35 | 0.00 | 33 | 1017.0 |
| 20260501225328 | 70 | 213 | 10.0 | 0.0 | 0.00 | 0.00 | 0.00 | 33 | 1017.0 |
| 20260501225035 | 69 | 264 | 3.0 | 7.0 | 0.00 | 0.35 | 0.00 | 33 | 1017.0 |
| 20260501224842 | 70 | 248 | 5.0 | 0.0 | 0.00 | 0.00 | 0.00 | 33 | 1017.0 |
| 20260501224507 | 70 | 220 | 6.0 | 7.0 | 0.00 | 0.35 | 0.00 | 33 | 1017.0 |
| 20260501224339 | 71 | 243 | 6.0 | 0.0 | 0.00 | 0.00 | 0.00 | 33 | 1017.0 |
| 20260501224055 | 70 | 242 | 4.0 | 6.0 | 0.00 | 0.35 | 0.00 | 33 | 1017.0 |
| 20260501223833 | 71 | 209 | 7.0 | 0.0 | 0.00 | 0.00 | 0.00 | 33 | 1017.0 |
| 20260501223550 | 70 | 237 | 6.0 | 9.0 | 0.00 | 0.35 | 0.00 | 33 | 1017.0 |
| 20260501223327 | 70 | 286 | 6.0 | 0.0 | 0.00 | 0.00 | 0.00 | 33 | 1017.0 |
| 20260501223023 | 70 | 245 | 5.0 | 9.0 | 0.00 | 0.35 | 0.00 | 33 | 1017.0 |
| 20260501222845 | 70 | 243 | 6.0 | 0.0 | 0.00 | 0.00 | 0.00 | 33 | 1017.0 |
| 20260501222516 | 70 | 234 | 5.0 | 9.0 | 0.00 | 0.35 | 0.00 | 33 | 1017.0 |
| 20260501222339 | 71 | 259 | 5.0 | 0.0 | 0.00 | 0.00 | 0.00 | 33 | 1017.0 |
| 20260501222008 | 70 | 231 | 6.0 | 9.0 | 0.00 | 0.35 | 0.00 | 33 | 1017.0 |
| 20260501221854 | 71 | 243 | 6.0 | 0.0 | 0.00 | 0.00 | 0.00 | 33 | 1017.0 |
| 20260501221535 | 70 | 218 | 6.0 | 8.0 | 0.00 | 0.35 | 0.00 | 33 | 1017.0 |
| 20260501221328 | 71 | 197 | 3.0 | 0.0 | 0.00 | 0.00 | 0.00 | 33 | 1017.0 |
| 20260501221030 | 70 | 217 | 5.0 | 8.0 | 0.00 | 0.35 | 0.00 | 33 | 1017.0 |
| 20260501220905 | 71 | 259 | 9.0 | 0.0 | 0.00 | 0.00 | 0.00 | 33 | 1017.0 |
| 20260501220557 | 71 | 202 | 7.0 | 8.0 | 0.00 | 0.35 | 0.00 | 33 | 1017.0 |
| 20260501220502 | 71 | 239 | 7.0 | 8.0 | 0.00 | 0.35 | 0.00 | 33 | 1017.0 |
| 20260501220400 | 71 | 260 | 4.0 | 0.0 | 0.00 | 0.00 | 0.00 | 33 | 1017.0 |
| 20260501220031 | 71 | 203 | 4.0 | 7.0 | 0.00 | 0.35 | 0.00 | 33 | 1017.0 |
| 20260501215836 | 71 | 238 | 6.0 | 0.0 | 0.00 | 0.00 | 0.00 | 33 | 1017.0 |
| 20260501215523 | 70 | 225 | 6.0 | 7.0 | 0.00 | 0.35 | 0.00 | 33 | 1017.0 |
| 20260501215330 | 71 | 192 | 7.0 | 0.0 | 0.00 | 0.00 | 0.00 | 33 | 1017.0 |
| 20260501215050 | 70 | 227 | 5.0 | 8.0 | 0.00 | 0.35 | 0.00 | 33 | 1017.0 |
| 20260501214824 | 71 | 221 | 5.0 | 0.0 | 0.00 | 0.00 | 0.00 | 33 | 1017.0 |
| 20260501214557 | 70 | 251 | 6.0 | 8.0 | 0.00 | 0.35 | 0.00 | 33 | 1017.0 |
| 20260501214341 | 71 | 199 | 4.0 | 0.0 | 0.00 | 0.00 | 0.00 | 33 | 1017.0 |
| 20260501214036 | 71 | 247 | 4.0 | 8.0 | 0.00 | 0.35 | 0.00 | 33 | 1017.0 |
| 20260501213836 | 71 | 255 | 3.0 | 0.0 | 0.00 | 0.00 | 0.00 | 33 | 1017.0 |
| 20260501213532 | 70 | 174 | 2.0 | 8.0 | 0.00 | 0.35 | 0.00 | 33 | 1017.0 |
| 20260501213331 | 71 | 211 | 10.0 | 0.0 | 0.00 | 0.00 | 0.00 | 33 | 1017.0 |
| 20260501213104 | 71 | 255 | 4.0 | 9.0 | 0.00 | 0.35 | 0.00 | 33 | 1017.0 |
| 20260501213003 | 70 | 296 | 4.0 | 9.0 | 0.00 | 0.35 | 0.00 | 33 | 1017.0 |
| 20260501212826 | 71 | 215 | 12.0 | 0.0 | 0.00 | 0.00 | 0.00 | 33 | 1017.0 |
| 20260501212554 | 70 | 308 | 4.0 | 9.0 | 0.00 | 0.35 | 0.00 | 33 | 1017.0 |
| 20260501212340 | 70 | 278 | 5.0 | 0.0 | 0.00 | 0.00 | 0.00 | 33 | 1017.0 |
| 20260501212046 | 69 | 283 | 4.0 | 9.0 | 0.00 | 0.35 | 0.00 | 33 | 1017.0 |
| 20260501211836 | 69 | 237 | 13.0 | 0.0 | 0.00 | 0.00 | 0.00 | 33 | 1017.0 |
| 20260501211520 | 69 | 202 | 5.0 | 11.0 | 0.00 | 0.35 | 0.00 | 33 | 1017.0 |
| 20260501211329 | 69 | 197 | 5.0 | 0.0 | 0.00 | 0.00 | 0.00 | 33 | 1017.0 |
| 20260501211008 | 69 | 206 | 7.0 | 11.0 | 0.00 | 0.35 | 0.00 | 33 | 1017.0 |
| 20260501210843 | 70 | 246 | 7.0 | 0.0 | 0.00 | 0.00 | 0.00 | 33 | 1017.0 |
| 20260501210557 | 69 | 230 | 6.0 | 11.0 | 0.00 | 0.35 | 0.00 | 33 | 1017.0 |
| 20260501210502 | 70 | 220 | 7.0 | 11.0 | 0.00 | 0.35 | 0.00 | 33 | 1017.0 |
| 20260501210400 | 70 | 266 | 6.0 | 0.0 | 0.00 | 0.00 | 0.00 | 33 | 1017.0 |
| 20260501210030 | 70 | 246 | 4.0 | 11.0 | 0.00 | 0.35 | 0.00 | 33 | 1017.0 |
| 20260501205855 | 71 | 227 | 8.0 | 0.0 | 0.00 | 0.00 | 0.00 | 33 | 1017.0 |
| 20260501205559 | 71 | 245 | 6.0 | 10.0 | 0.00 | 0.35 | 0.00 | 33 | 1017.0 |
| 20260501205503 | 71 | 265 | 3.0 | 9.0 | 0.00 | 0.35 | 0.00 | 33 | 1017.0 |
| 20260501205330 | 71 | 273 | 8.0 | 0.0 | 0.00 | 0.00 | 0.00 | 33 | 1017.0 |
| 20260501205032 | 71 | 243 | 5.0 | 9.0 | 0.00 | 0.35 | 0.00 | 33 | 1017.0 |
| 20260501204843 | 72 | 264 | 7.0 | 0.0 | 0.00 | 0.00 | 0.00 | 33 | 1017.0 |
| 20260501204526 | 72 | 207 | 4.0 | 7.0 | 0.00 | 0.35 | 0.00 | 33 | 1017.0 |
| 20260501204342 | 72 | 236 | 3.0 | 0.0 | 0.00 | 0.00 | 0.00 | 33 | 1017.0 |
| 20260501204019 | 72 | 249 | 4.0 | 7.0 | 0.00 | 0.35 | 0.00 | 33 | 1017.0 |
| 20260501203839 | 72 | 242 | 7.0 | 0.0 | 0.00 | 0.00 | 0.00 | 33 | 1017.0 |
| 20260501203515 | 72 | 256 | 3.0 | 6.0 | 0.00 | 0.35 | 0.00 | 33 | 1017.0 |